#timestamp,LO_Frequency,Hit,StdDev 
1599886815.6,286046998.4,N
1599886835.4,286046998.5,N
1599886855.3,286047000.7,N
1599886875.1,286047000.1,N
1599886895.8,286047000.3,N
1599886915.7,286046998.6,N
1599886935.5,286046998.3,N
1599886955.4,286046998.4,N
1599886975.2,286047000.4,N
1599886995.0,286047002.7,N
1599886996.0,286047002.7,N
1599887015.8,286047001.9,N
1599887035.6,286047002.0,N
1599887055.5,286047002.8,N
1599887075.3,286047002.3,N
1599887095.1,286047000.1,N
1599887115.9,286047002.7,N
1599887135.7,286047002.4,N
1599887155.5,286047002.8,N
1599887175.4,286047000.0,N
1599887195.2,286047000.8,N
1599887215.1,286047000.1,N
1599887216.0,286047000.1,N
1599887235.8,286046999.8,N
1599887255.6,286047000.6,N
1599887275.0,286047001.1,N
1599887275.9,286047001.1,N
1599887295.8,286047000.4,N
1599887315.6,286047000.9,N
1599887335.5,286047000.6,N
1599887355.3,286047001.0,N
1599887375.1,286047002.7,N
1599887395.9,286047000.5,N
1599887415.7,286047000.5,N
1599887435.6,286047000.5,N
1599887455.4,286047000.1,N
1599887475.2,286047000.8,N
1599887495.1,286047001.0,N
1599887496.0,286047001.0,N
1599887515.8,286046999.4,N
1599887535.6,286046999.6,N
1599887555.5,286047001.1,N
1599887575.3,286046998.6,N
1599887595.2,286047000.5,N
1599887615.9,286046998.2,N
1599887635.7,286047000.9,N
1599887655.6,286047001.5,N
1599887675.4,286046998.2,N
1599887695.3,286047000.7,N
1599887715.1,286047002.4,N
1599887735.8,286046998.5,N
1599887755.7,286047002.1,N
1599887775.5,286047000.1,N
1599887795.4,286047000.0,N
1599887815.2,286047000.2,N
1599887835.0,286047000.5,N
1599887835.9,286047000.5,N
1599887855.8,286046996.9,N
1599887875.6,286046996.5,N
1599887895.4,286046998.7,N
1599887915.3,286047000.4,N
1599887935.1,286046998.6,N
1599887955.9,286046997.0,N
1599887975.7,286046997.3,N
1599887995.5,286046996.9,N
1599888015.4,286046996.7,N
1599888035.2,286046999.2,N
1599888055.0,286046996.9,N
1599888055.9,286046996.9,N
1599888075.8,286046997.4,N
1599888095.6,286046997.4,N
1599888115.5,286046997.1,N
1599888135.3,286046999.4,N
1599888155.1,286046997.1,N
1599888175.9,286046997.7,N
1599888195.7,286046996.7,N
1599888215.5,286046998.0,N
1599888235.4,286046997.4,N
1599888255.2,286046997.5,N
1599888275.1,286046994.9,Y
1599888276.0,286046994.9,P
1599888295.8,286046999.5,N
1599888315.6,286046998.9,N
1599888335.5,286046999.3,N
1599888355.3,286046998.8,N
1599888375.1,286046998.9,N
1599888395.9,286046999.0,N
1599888415.7,286046998.3,N
1599888435.6,286046999.2,N
1599888455.4,286046999.3,N
1599888475.2,286046998.3,N
1599888495.1,286046998.3,N
1599888496.0,286046998.3,N
1599888515.8,286046998.5,N
1599888535.6,286047000.9,N
1599888555.5,286046998.8,N
1599888575.3,286046998.7,N
1599888595.2,286047001.0,N
1599888615.9,286046999.2,N
1599888635.7,286046998.6,N
1599888655.6,286046998.1,N
1599888675.4,286046998.9,N
1599888695.2,286046999.1,N
1599888715.1,286046998.4,N
1599888716.0,286046998.4,N
1599888735.8,286046998.9,N
1599888755.7,286047000.3,N
1599888775.5,286046998.2,N
1599888795.3,286047001.2,N
1599888815.2,286047000.4,N
1599888835.9,286046999.9,N
1599888855.7,286047001.0,N
1599888875.6,286046998.8,N
1599888895.4,286046998.3,N
1599888915.2,286046998.3,N
1599888935.1,286046998.7,N
1599888936.0,286046998.7,N
1599888955.8,286046998.8,N
1599888975.7,286046999.5,N
1599888995.5,286046998.1,N
1599889015.3,286047001.2,N
1599889035.2,286046998.5,N
1599889055.0,286047001.0,N
1599889055.9,286047001.0,N
1599889075.8,286046998.5,N
1599889095.6,286047000.2,N
1599889115.4,286047000.5,N
1599889135.3,286046998.2,N
1599889155.1,286046998.5,N
1599889175.9,286046998.5,N
1599889195.7,286046998.6,N
1599889215.5,286046998.3,N
1599889235.4,286046998.1,N
1599889255.2,286047001.2,N
1599889275.0,286047000.4,N
1599889275.9,286047000.4,N
1599889295.8,286047000.4,N
1599889315.6,286047000.3,N
1599889335.5,286046999.9,N
1599889355.3,286046999.8,N
1599889375.1,286047000.1,N
1599889395.9,286047000.4,N
1599889415.7,286047000.5,N
1599889435.5,286047000.7,N
1599889455.4,286046998.8,N
1599889475.2,286046998.5,N
1599889495.1,286046998.1,N
1599889496.0,286046998.1,N
1599889515.8,286046999.8,N
1599889535.6,286047000.8,N
1599889555.5,286047000.2,N
1599889575.3,286047002.7,N
1599889595.1,286047002.0,N
1599889615.9,286047002.6,N
1599889635.7,286047000.5,N
1599889655.6,286047002.2,N
1599889675.4,286047000.4,N
1599889695.2,286047002.8,N
1599889715.1,286047000.4,N
1599889716.0,286047000.4,N
1599889735.8,286046998.6,N
1599889755.7,286046998.8,N
1599889775.5,286047000.8,N
1599889795.3,286047000.4,N
1599889815.2,286047001.0,N
1599889835.0,286046999.9,N
1599889835.9,286046999.9,N
1599889855.8,286047002.7,N
1599889875.6,286047000.4,N
1599889895.4,286047000.5,N
1599889915.3,286047002.4,N
1599889935.1,286047002.3,N
1599889955.8,286047002.6,N
1599889975.7,286047002.1,N
1599889995.5,286047002.4,N
1599890015.3,286047002.7,N
1599890035.2,286047001.1,N
1599890055.0,286047000.3,N
1599890055.9,286047000.3,N
1599890075.8,286047002.0,N
1599890095.6,286047002.3,N
1599890115.4,286046999.7,N
1599890135.3,286047000.3,N
1599890155.1,286047000.8,N
1599890175.9,286046999.9,N
1599890195.7,286047001.6,N
1599890215.5,286047000.2,N
1599890235.4,286047001.6,N
1599890255.2,286047002.5,N
1599890275.0,286047004.4,Y
1599890275.9,286047004.4,P
1599890295.8,286047002.8,N
1599890315.6,286047000.1,N
1599890335.5,286047002.4,N
1599890355.3,286046998.6,N
1599890375.1,286046998.6,N
1599890395.9,286046998.3,N
